Flag for U.S.A. Weather past 2 weeks in Sedona, Arizona, U.S.A.

Now
66 °F

Scattered clouds.


Feels Like: 66 °F
Forecast: 62 / 82 °F
Wind: 6 mph from Northeast

Location: Sedona Airport

Current Time: Sep 22, 2014 at 7:35:15 AM

Latest Report: Sep 22, 2014 at 7:15 AM


Visibility: 10 mi

Pressure: 30.21 "Hg

Humidity: 56%

Dew point: 50 °F

Location of SedonaLocation

Historic Weather in Sedona — Graph

°F

Sedona temperature yesterday

Maximum temperature yesterday: 86 °F (at 2:15 PM)
Minimum temperature yesterday: 68 °F (at 3:35 AM)
Average temperature yesterday: 75 °F

Past Weeks' High & Low Weather Summary

 TemperatureHumidityPressure
High91 °F (Sep 15, 2:15 PM)100% (Sep 8, 6:55 AM)30.21 "Hg (Sep 8, 6:55 AM)
Low61 °F (Sep 10, 3:55 AM)14% (Sep 11, 4:35 PM)29.93 "Hg (Sep 18, 3:15 PM)
Average73 °F52%30.10 "Hg
* Reported Sep 7 6:15 AM — Sep 22 6:15 AM, Sedona, Weather by CustomWeather, © 2014

Note: Actual official high and low records may vary slightly from our data, if they occured in-between our weather recording intervals... More about our weather records

Advertising

Sedona weather history for previous 24 hours

 ConditionsComfort  
Time TempWeatherWind HumidityBarometerVisibility
6:15 AM
Sep 22
64 °FScattered clouds.10 mph60%30.20 "Hg10 mi
5:55 AM64 °FPassing clouds.10 mph60%30.19 "Hg10 mi
5:35 AM64 °FPassing clouds.9 mph60%30.19 "Hg10 mi
5:15 AM64 °FPassing clouds.10 mph60%30.19 "Hg10 mi
4:55 AM64 °FPassing clouds.12 mph60%30.18 "Hg10 mi
4:15 AM64 °FPassing clouds.10 mph60%30.18 "Hg10 mi
3:55 AM64 °FPassing clouds.12 mph60%30.18 "Hg10 mi
3:15 AM64 °FClear.7 mph64%30.18 "Hg10 mi
2:55 AM64 °FClear.7 mph64%30.18 "Hg10 mi
2:15 AM66 °FPassing clouds.7 mph60%30.18 "Hg10 mi
1:55 AM68 °FClear.6 mph56%30.18 "Hg10 mi
1:35 AM68 °FClear.7 mph56%30.18 "Hg10 mi
1:15 AM68 °FClear.6 mph56%30.18 "Hg10 mi
12:55 AM68 °FClear.3 mph56%30.19 "Hg10 mi
12:35 AM68 °FClear.3 mph56%30.18 "Hg10 mi
12:15 AM70 °FClear.No wind53%30.18 "Hg10 mi
11:55 PM
Sep 21
70 °FClear.3 mph53%30.18 "Hg10 mi
11:35 PM68 °FPassing clouds.6 mph56%30.18 "Hg10 mi
11:15 PM68 °FPassing clouds.3 mph56%30.19 "Hg10 mi
10:55 PM70 °FPassing clouds.6 mph53%30.19 "Hg10 mi
10:35 PM70 °FClear.6 mph53%30.18 "Hg10 mi
10:15 PM70 °FClear.8 mph53%30.18 "Hg10 mi
9:55 PM70 °FClear.6 mph53%30.18 "Hg10 mi
9:35 PM72 °FClear.No wind50%30.18 "Hg10 mi
9:15 PM73 °FClear.No wind47%30.17 "Hg10 mi
8:55 PM73 °FClear.No wind44%30.17 "Hg10 mi
8:35 PM73 °FClear.No wind47%30.17 "Hg10 mi
8:15 PM73 °FClear.No wind44%30.17 "Hg10 mi
7:55 PM73 °FClear.5 mph44%30.16 "Hg10 mi
7:35 PM73 °FClear.6 mph44%30.15 "Hg10 mi
7:15 PM75 °FClear.5 mph41%30.14 "Hg10 mi
6:55 PM75 °FClear.5 mph41%30.13 "Hg10 mi
6:35 PM77 °FClear.8 mph39%30.12 "Hg10 mi
6:15 PM79 °FSunny.8 mph37%30.12 "Hg10 mi
5:55 PM79 °FSunny.6 mph37%30.11 "Hg10 mi
5:15 PM81 °FSunny.9 mph34%30.10 "Hg10 mi
4:55 PM82 °FSunny.7 mph32%30.11 "Hg10 mi
4:35 PM82 °FScattered clouds.12 mph32%30.12 "Hg10 mi
4:15 PM82 °FScattered clouds.7 mph35%30.12 "Hg10 mi
3:55 PM82 °FPartly sunny.12 mph32%30.12 "Hg10 mi
3:35 PM82 °FScattered clouds.8 mph32%30.13 "Hg10 mi
3:15 PM84 °FScattered clouds.9 mph31%30.13 "Hg10 mi
2:55 PM82 °FSunny.7 mph32%30.13 "Hg10 mi
2:35 PM86 °FScattered clouds.8 mph31%30.13 "Hg10 mi
2:15 PM86 °FScattered clouds.3 mph31%30.14 "Hg10 mi
1:55 PM84 °FScattered clouds.8 mph33%30.14 "Hg10 mi
1:15 PM81 °FOvercast.9 mph39%30.16 "Hg10 mi
12:55 PM82 °FPartly sunny.8 mph37%30.16 "Hg10 mi
12:35 PM81 °FPartly sunny.8 mph39%30.17 "Hg10 mi
12:15 PM82 °FBroken clouds.7 mph37%30.17 "Hg10 mi
11:15 AM84 °FSunny.9 mph35%30.20 "Hg10 mi
10:55 AM79 °FScattered clouds.7 mph45%30.20 "Hg10 mi
10:35 AM79 °FBroken clouds.5 mph45%30.20 "Hg10 mi
10:15 AM79 °FMostly cloudy.5 mph51%30.20 "Hg10 mi
9:55 AM81 °FMostly cloudy.5 mph48%30.21 "Hg10 mi
9:35 AM77 °FMostly cloudy.9 mph54%30.21 "Hg10 mi
9:15 AM73 °FOvercast.3 mph61%30.20 "Hg10 mi
8:55 AM75 °FPartly sunny.3 mph57%30.20 "Hg10 mi
8:35 AM73 °FSunny.No wind61%30.19 "Hg10 mi
8:15 AM73 °FSunny.3 mph61%30.18 "Hg10 mi
7:55 AM72 °FSunny.No wind61%30.18 "Hg10 mi
7:15 AM70 °FSunny.5 mph64%30.17 "Hg10 mi
Weather by CustomWeather, © 2014

See weather overviewHow to use our weather pages